STARLINK-1366, 45569

Orbit data source: Space-Track

STARLINK-1366, 45569 is a payload satellite owned by SpaceX/Seattle (US) in LEO that was launched on Wed, 22 Apr 2020 UTC via an FALCON 9 launch vehicle from the Air Force Eastern Test Range (AFETR). Payload-class satellites include a variety of spacecraft equipped with specific instruments for various scientific and technological missions. These include communications satellites like Starlink; space stations such as the ISS; scientific satellites like the Hubble; Earth observation satellites from companies like Planet Labs, Umbra, and HawkEye 360; GPS; miniature CubeSats for education and research; and military/defense satellites.

Loading next visibility...
Identifier
45569, 2020-025AQ
Orbit
LEO
Country
Flag of USUS
Related business
Manufacturer
SpaceX/Seattle
Mission
Partially operational Commercial Communications
Bus & Motor
STARLINK, Unknown motor
Mass
260 kg wet, ~248 kg dry
Launch date (UTC)
2020-04-22 (6 years ago)
Launch vehicle
FALCON 9
Launch site
Air Force Eastern Test Range (AFETR)
Object type
Payload
Rocket body
Debris
Shape & HBR
Box + 1 Pan, 10.1 m
Radar Cross Section
13.562 m², Large (>1 m²)

Expand to show TLE details & history
Last TLE update: 15 hours ago

TLE from 15 hours ago
0 STARLINK-1366
1 45569U 20025AQ  25312.91667823  .00130595  00000-0  30089-2 0  9998
2 45569  53.0529 263.8396 0004461  92.3593 131.0917 15.41655983  5710
Epoch: 2025-11-08T22:00Z
TLE epoch observation values (Epoch: 2025-11-08T22:00:00.999Z)
Latitude
-33.57757°
Longitude
95.26516°
Altitude
453.761 km
Speed
7.639 km/s
True Right ascension
07h 34m 26s
True Declination
-33° 24' 44"
Sunlit
Object was in daylight at epoch
Visualization orbit readout
Latitude
Unknown
Longitude
Unknown
Altitude
Unknown
Speed
Unknown
Apparent Right ascension
Unknown
Apparent Declination
Unknown
Sunlit
N/A
Visualization observer readout
Local Sidereal Time
08:57:39
Azimuth
Unknown
Elevation
Unknown
Doppler factor
Unknown
Orbital elements
Apogee altitude
444.539 km
Perigee altitude
438.454 km
Semi-major axis
6,819.634 km
Eccentricity
0.00045
Inclination
53.0529°
RAAN
263.8396°
Arg. of periapsis
92.3593°
True anomaly
131.13021°
Mean anomaly
131.0917°
Eccentric anomaly
131.11096°
Mean motion
3.85391 °/min
Orbital period
93.41 mins
BSTAR
0.0030089
Loading maneuver chart data...
Computing Atmospheric mass density...
Loading historical data...
Loading historical data...
Loading historical data...
Loading historical data...
Loading historical data...
Loading historical data...
Loading historical data...

Documentation

Showing up to 5 results
|